TimeCDT,TemperatureF,Dew PointF,Humidity,Sea Level PressureIn,VisibilityMPH,Wind Direction,Wind SpeedMPH,Gust SpeedMPH,PrecipitationIn,Events,Conditions,WindDirDegrees,DateUTC
12:56 AM,30.2,24.8,80,29.97,10.0,ENE,12.7,-,N/A,,Overcast,60,2013-04-11 05:56:00
1:56 AM,30.0,24.1,79,29.78,10.0,NE,29.9,41.4,0.01,,Scattered Clouds,50,2013-04-11 06:56:00
2:56 AM,31.1,24.1,75,29.93,10.0,ENE,9.2,-,N/A,,Overcast,70,2013-04-11 07:56:00
3:35 AM,30.2,24.8,80,29.89,10.0,NE,12.7,-,N/A,,Overcast,50,2013-04-11 08:35:00
3:56 AM,31.1,26.1,82,29.90,10.0,NE,12.7,-,N/A,,Overcast,50,2013-04-11 08:56:00
4:56 AM,31.1,25.2,79,29.86,10.0,ENE,15.0,25.3,0.00,,Overcast,60,2013-04-11 09:56:00
5:56 AM,31.1,26.1,82,29.82,10.0,ENE,16.1,23.0,0.00,,Overcast,60,2013-04-11 10:56:00
6:30 AM,30.2,28.4,93,29.81,8.0,ENE,16.1,23.0,0.00,Rain,Light Freezing Rain,70,2013-04-11 11:30:00
6:56 AM,32.0,28.4,87,29.81,4.0,ENE,15.0,24.2,N/A,Rain,Light Freezing Rain,70,2013-04-11 11:56:00
7:11 AM,32.0,28.4,87,29.80,1.8,ENE,19.6,26.5,0.01,Rain,Light Freezing Rain,70,2013-04-11 12:11:00
7:28 AM,30.2,30.2,100,29.78,2.5,ENE,19.6,26.5,0.02,Rain,Light Freezing Rain,60,2013-04-11 12:28:00
7:39 AM,30.2,30.2,100,29.78,2.5,ENE,19.6,27.6,0.03,Rain,Light Freezing Rain,70,2013-04-11 12:39:00
7:56 AM,31.1,30.0,96,29.81,2.0,ENE,21.9,28.8,0.05,,Overcast,60,2013-04-11 12:56:00
8:00 AM,30.2,30.2,100,29.79,2.5,ENE,18.4,28.8,0.00,,Overcast,60,2013-04-11 13:00:00
8:07 AM,30.2,30.2,100,29.79,3.0,ENE,23.0,28.8,0.01,,Overcast,60,2013-04-11 13:07:00
8:12 AM,30.2,30.2,100,29.78,1.8,ENE,20.7,28.8,0.02,,Overcast,60,2013-04-11 13:12:00
8:30 AM,30.2,30.2,100,29.78,2.0,ENE,23.0,31.1,0.02,,Overcast,70,2013-04-11 13:30:00
8:38 AM,30.2,30.2,100,29.77,1.5,ENE,19.6,32.2,0.03,,Overcast,70,2013-04-11 13:38:00
8:56 AM,32.0,31.1,96,29.79,2.0,ENE,19.6,31.1,0.04,,Overcast,70,2013-04-11 13:56:00
9:13 AM,30.2,30.2,100,29.77,1.5,ENE,13.8,-,0.01,,Overcast,70,2013-04-11 14:13:00
9:17 AM,30.2,30.2,100,29.77,1.0,ENE,18.4,29.9,0.02,,Overcast,70,2013-04-11 14:17:00
9:27 AM,32.0,30.2,93,29.77,1.2,ENE,17.3,27.6,0.02,,Overcast,70,2013-04-11 14:27:00
9:56 AM,32.0,30.2,93,29.79,1.0,East,11.5,23.0,N/A,,Overcast,80,2013-04-11 14:56:00
10:47 AM,32.0,32.0,100,29.78,0.8,East,16.1,25.3,0.05,,Overcast,80,2013-04-11 15:47:00
10:56 AM,32.0,32.0,100,29.80,1.8,ENE,15.0,25.3,0.05,,Overcast,70,2013-04-11 15:56:00
11:05 AM,33.8,32.0,93,29.78,2.0,ENE,18.4,24.2,0.00,,Overcast,70,2013-04-11 16:05:00
11:13 AM,33.8,32.0,93,29.78,1.5,ENE,18.4,28.8,0.00,Rain,Light Rain,70,2013-04-11 16:13:00
11:25 AM,33.8,32.0,93,29.77,2.0,ENE,16.1,23.0,0.00,Rain,Light Rain,70,2013-04-11 16:25:00
11:33 AM,32.0,32.0,100,29.77,1.8,ENE,13.8,23.0,0.01,Rain,Light Rain,70,2013-04-11 16:33:00
11:56 AM,32.9,32.0,96,29.79,3.0,ENE,15.0,24.2,0.01,Rain,Light Rain,70,2013-04-11 16:56:00
12:03 PM,33.8,32.0,93,29.77,1.8,ENE,16.1,21.9,0.01,Rain,Light Rain,70,2013-04-11 17:03:00
12:10 PM,33.8,32.0,93,29.77,1.0,East,16.1,24.2,0.01,Rain,Light Rain,80,2013-04-11 17:10:00
12:47 PM,33.8,32.0,93,29.74,1.2,ENE,18.4,29.9,0.02,Rain,Light Rain,70,2013-04-11 17:47:00
12:56 PM,33.8,32.0,93,29.74,1.2,ENE,20.7,28.8,N/A,Rain,Light Rain,70,2013-04-11 17:56:00
1:06 PM,33.8,32.0,93,29.74,1.0,ENE,19.6,25.3,0.00,Rain,Light Rain,70,2013-04-11 18:06:00
1:56 PM,32.9,32.0,96,29.76,1.0,ENE,16.1,27.6,0.01,Rain,Light Rain,60,2013-04-11 18:56:00
2:11 PM,33.8,32.0,93,29.73,1.2,ENE,21.9,27.6,0.00,Rain,Light Rain,70,2013-04-11 19:11:00
2:24 PM,33.8,32.0,93,29.73,1.0,ENE,17.3,25.3,0.00,Rain,Light Rain,70,2013-04-11 19:24:00
2:56 PM,32.9,32.0,96,29.75,1.0,ENE,12.7,-,0.00,Rain,Light Rain,60,2013-04-11 19:56:00
3:56 PM,32.0,32.0,100,29.71,1.0,ENE,16.1,27.6,N/A,,Overcast,60,2013-04-11 20:56:00
4:20 PM,32.0,30.2,93,29.70,1.2,ENE,15.0,-,0.00,,Overcast,60,2013-04-11 21:20:00
4:29 PM,32.0,30.2,93,29.70,1.0,ENE,16.1,24.2,0.00,,Overcast,60,2013-04-11 21:29:00
4:56 PM,32.0,31.1,96,29.73,1.0,ENE,15.0,24.2,0.00,,Overcast,60,2013-04-11 21:56:00
5:56 PM,31.1,31.1,100,29.73,1.0,ENE,15.0,-,0.00,,Overcast,60,2013-04-11 22:56:00
6:12 PM,30.2,30.2,100,29.71,1.2,ENE,17.3,25.3,N/A,,Overcast,60,2013-04-11 23:12:00
6:49 PM,30.2,30.2,100,29.69,1.8,ENE,23.0,28.8,N/A,,Overcast,60,2013-04-11 23:49:00
6:56 PM,30.2,30.2,100,29.67,1.8,NE,21.9,29.9,N/A,,Overcast,50,2013-04-11 23:56:00
7:22 PM,30.2,30.2,100,29.60,2.0,ENE,26.5,34.5,0.00,Rain,Light Freezing Rain,60,2013-04-12 00:22:00
7:40 PM,30.2,30.2,100,29.62,4.0,NE,17.3,27.6,0.00,Rain,Light Freezing Rain,50,2013-04-12 00:40:00
7:56 PM,31.1,30.0,96,29.65,6.0,ENE,16.1,25.3,0.00,,Overcast,60,2013-04-12 00:56:00
8:46 PM,30.2,30.2,100,29.66,2.0,ENE,15.0,-,N/A,,Overcast,70,2013-04-12 01:46:00
8:56 PM,31.1,30.0,96,29.68,1.5,ENE,15.0,-,0.00,Rain,Light Freezing Rain,60,2013-04-12 01:56:00
9:03 PM,30.2,30.2,100,29.66,1.2,ENE,12.7,19.6,0.00,Rain,Light Freezing Rain,60,2013-04-12 02:03:00
9:27 PM,30.2,30.2,100,29.64,1.5,ENE,13.8,19.6,0.00,Rain,Light Freezing Rain,60,2013-04-12 02:27:00
9:45 PM,30.2,30.2,100,29.64,1.2,ENE,12.7,18.4,0.00,Rain,Light Freezing Rain,60,2013-04-12 02:45:00
9:56 PM,30.2,30.2,100,29.65,1.8,NE,13.8,-,N/A,Rain,Light Freezing Rain,50,2013-04-12 02:56:00
10:12 PM,30.2,30.2,100,29.66,2.0,NE,11.5,-,0.00,Rain,Light Freezing Rain,50,2013-04-12 03:12:00
10:23 PM,30.2,30.2,100,29.65,1.8,ENE,11.5,-,0.00,Rain,Light Freezing Rain,60,2013-04-12 03:23:00
10:35 PM,30.2,30.2,100,29.65,1.2,NE,12.7,-,0.00,Rain,Light Freezing Rain,50,2013-04-12 03:35:00
10:56 PM,31.1,30.0,96,29.67,1.5,NE,9.2,-,0.00,Rain,Light Freezing Rain,50,2013-04-12 03:56:00
11:16 PM,30.2,30.2,100,29.64,2.0,NE,10.4,-,0.00,Rain,Light Freezing Rain,50,2013-04-12 04:16:00
11:31 PM,30.2,30.2,100,29.64,2.0,NE,12.7,-,0.00,Rain,Light Freezing Rain,50,2013-04-12 04:31:00
11:56 PM,30.0,30.0,100,29.66,2.5,ENE,10.4,-,0.00,Rain,Light Freezing Rain,60,2013-04-12 04:56:00